Vertical_Velocity
1 1 1 0 1 1 0 0 -1 -1 -0 -1 -1 1 -1 -1 -1 -1 -1 -1 -1 -2 -1 -0 -0 -1 -1 -1 -1 -0 -1 -1 -1 -1 -1 -1 -1 -1 -1 0 0 -1 1
0 -0 0 1 0 -0 1 1 1 0 -1 -1 -0 -1 -1 -0 -1 1 1 -0 -1 1 -1 -2 -2 -1 -3 -1 -1 -1 -1 -1 -0 -1 1 -0 -1 -0 -0 -0 -1 0 -0
-0 -1 -1 -1 -1 1 -0 -2 -0 1 0 0 -1 1 -1 -0 -0 -1 -2 0 -0 -1 -2 -1 -0 -2 -1 -0 -0 -2 -1 -1 -1 -0 -1 -1 -1 0 -1 -1 1 1 -1
-2 -3 -1 0 -1 -1 -1 -0 0 -0 -0 -0 0 -0 -0 -1 -1 -0 0 -1 0 1 -0 -1 -1 -0 -1 0 -1 -1 -0 1 0 0 1 -3 -2 -1 -1 -0 0 -0 -1
1 -0 -0 -0 1 -0 -1 -1 -1 -0 -1 -1 -1 -0 -1 0 -1 -2 -2 -1 -1 -1 -1 1 1 -1 -1 -1 -1 -1 0 0 0 -0 1 -1 0 -0 0 1 -0 2 -0
-1 -0 -1 -1 1 0 1 -0 -1 -2 -1 0 -0 -0 -1 -1 -1 -0 0 -1 -2 -0 -1 -0 -1 0 -0 -2 -1 -2 -1 0 0 0 -1 0 -1 0 1 -0 -1 -0 -2
-4 -2 -1 -2 -1 -0 0 1 1 0 0 -1 1 -0 0 -0 -1 -1 -1 -0 -0 -0 -0 -0 0 0 -0 -2 -2 -0 1 1 -0 1 -3 0 -1 -0 -0 -0 -0 -1 0
-0 0 -1 -1 -1 -1 -1 -1 1 0 0 -0 -1 1 -0 -1 -1 -1 -1 -2 -2 -2 -1 -1 -1 -1 -1 -1 -0 -0 -0 1 -0 -3 -1 2 -1 -0 -0 -1 -1 -1 -0
-0 -0 -1 -0 1 -1 -1 -1 -1 0 0 -1 -0 -1 1 -0 -1 -1 -1 -1 -0 0 -1 -1 -1 -1 -0 -1 -0 -1 -1 -1 -0 1 0 -2 -1 -1 -0 -1 0 -1 -1
-2 -1 1 -1 -0 1 -1 -0 -0 -0 0 1 -0 1 1 -0 -1 0 1 0 1 0 -0 -1 -0 0 -0 -1 -0 -2 -1 2 1 1 1 1 1 0 -1 -0 -1 0 -0
-2 -3 -0 -1 -0 -1 0 -0 -1 -2 0 0 1 0 2 0 -2 2 1 1 1 1 0 -2 -1 -1 1 -2 1 -1 -1 5 -1 -2 1 0 -1 0 -0 -2 -1 -1 1
-2 0 -1 -1 -2 0 0 1 -1 1 -3 1 0 1 2 -0 -1 -0 0 0 1 -0 0 1 -0 2 -2 -0 1 0 -0 4 1 2 -2 2 -0 1 1 -1 -1 -1 -1
4 0 -0 -0 -1 -2 -1 -1 -0 1 0 -1 -1 1 1 -1 -3 -0 -0 -1 0 -1 -1 1 0 2 1 1 1 -1 -1 1 4 -1 -3 -1 1 -0 1 -1 -1 -0 -0
-5 -1 3 -2 2 2 -6 2 -1 -1 -0 -3 -3 -1 3 0 -0 0 -1 1 -1 0 -1 0 -0 0 3 3 1 3 1 0 3 0 -0 -2 -1 1 -0 -0 -2 0 0
4 -3 1 1 -1 -0 -2 0 -1 -1 0 -2 -3 -2 -0 0 2 0 -1 1 0 1 2 -2 0 -2 -1 0 -1 -1 -1 -3 5 0 -0 -2 -2 -0 0 -0 -0 0 1
-1 2 -3 -0 6 -1 -1 1 -0 0 -0 0 1 -4 -3 -1 1 0 -3 -1 -3 -2 0 1 1 -0 -0 0 1 -2 -1 -4 3 -1 0 -0 -0 0 1 1 1 0 -1
-9 0 5 -3 -2 7 -2 -1 2 1 0 -1 -0 -0 0 1 2 -0 0 -1 -1 -0 -2 -0 -1 -0 -2 -1 -1 -1 -1 -1 1 2 0 0 -1 -0 1 0 0 0 -1
-2 -10 2 -0 -6 1 4 -3 -3 1 -2 -2 1 -1 -2 -0 1 -1 -1 -1 -1 -1 1 1 0 0 -2 0 -0 -0 -1 -3 -2 4 -2 1 -0 1 -0 0 1 -1 -1
2 0 -8 2 2 -2 -1 -4 1 4 1 4 1 -1 0 2 2 -0 -2 1 1 -1 -1 1 2 -0 0 1 0 -1 -0 -1 -2 -1 1 1 1 0 -1 -1 -3 1 -1
-4 2 -4 -10 2 1 6 -1 -9 4 -1 -3 -1 3 0 0 1 -5 -1 -1 -2 -2 -1 -0 -1 -0 2 0 1 1 1 -0 -2 0 -1 1 -1 1 4 4 1 -1 -1
-0 -4 5 -0 -3 -3 4 10 -0 1 -0 -2 -1 4 5 2 -2 -3 -1 -2 -2 -1 -0 -1 -0 -1 0 0 0 1 0 -0 -0 1 -1 1 0 1 -3 -1 -3 0 -0
3 3 -4 2 -1 -4 2 1 1 2 -3 2 -1 0 4 0 0 1 1 1 0 -1 -1 1 0 -1 2 3 3 6 4 2 -1 -1 -2 -2 1 -1 -1 2 -1 -2 -1
2 1 2 -4 -0 -1 -11 -4 3 3 5 2 3 2 0 -1 -1 -0 4 1 1 1 -0 -0 1 1 -3 0 -0 1 0 1 1 -1 -0 -1 -1 -1 -1 -0 -1 -1 -1
7 -2 1 1 -3 -0 -3 -2 -8 6 5 1 4 5 -0 7 6 4 5 3 1 0 -1 -2 -2 -1 0 -1 -0 -1 -2 -0 -0 2 -1 -0 1 -1 1 -1 0 -2 -1
-1 4 4 2 -1 -5 -4 1 4 -11 7 4 3 2 5 0 0 4 -1 1 3 3 3 1 2 1 -1 0 -2 -1 -1 -0 1 -1 3 -8 2 -3 3 2 -1 -0 -2
0 3 2 7 2 -3 -7 5 -4 11 3 1 7 2 1 6 4 0 2 2 5 1 1 0 1 1 0 -0 2 -0 -1 -1 -0 -0 2 -0 6 2 0 -5 -5 -5 -2
Height
5867 5868 5869 5869 5870 5871 5872 5873 5874 5875 5876 5877 5877 5877 5877 5876 5877 5877 5877 5877 5877 5877 5876 5876 5876 5876 5876 5876 5875 5874 5874 5874 5873 5873 5872 5871 5871 5870 5869 5870 5869 5869 5869
5865 5866 5866 5867 5867 5868 5869 5870 5870 5872 5873 5874 5874 5875 5875 5875 5874 5874 5874 5874 5874 5874 5874 5874 5874 5874 5873 5873 5872 5871 5871 5871 5871 5870 5869 5869 5868 5867 5866 5866 5866 5865 5866
5862 5863 5864 5864 5865 5866 5866 5867 5867 5867 5869 5869 5870 5871 5872 5872 5872 5872 5871 5871 5871 5871 5871 5871 5871 5871 5870 5870 5869 5868 5868 5868 5867 5866 5866 5865 5866 5864 5863 5863 5862 5862 5861
5859 5860 5861 5862 5863 5863 5863 5863 5863 5864 5865 5865 5866 5867 5867 5868 5868 5868 5868 5868 5868 5867 5867 5867 5868 5868 5867 5866 5865 5865 5865 5864 5863 5862 5863 5861 5862 5861 5860 5859 5859 5859 5858
5856 5857 5857 5858 5859 5859 5860 5860 5861 5861 5861 5861 5861 5862 5862 5863 5864 5864 5864 5864 5864 5864 5863 5863 5863 5863 5863 5863 5862 5862 5861 5860 5860 5859 5859 5859 5858 5856 5855 5855 5855 5854 5854
5851 5853 5854 5854 5855 5855 5856 5856 5857 5858 5858 5858 5858 5858 5858 5859 5859 5859 5860 5859 5859 5859 5859 5860 5859 5858 5859 5858 5858 5858 5858 5857 5856 5856 5855 5855 5854 5853 5852 5851 5850 5850 5850
5847 5848 5849 5850 5852 5852 5852 5853 5853 5854 5854 5854 5854 5854 5854 5855 5855 5855 5855 5855 5855 5855 5855 5855 5855 5855 5854 5854 5853 5853 5853 5853 5852 5852 5850 5850 5849 5848 5848 5847 5845 5845 5844
5843 5843 5845 5847 5848 5849 5849 5850 5850 5851 5851 5851 5851 5851 5851 5851 5851 5851 5851 5851 5851 5851 5851 5851 5851 5850 5850 5850 5850 5850 5849 5848 5848 5848 5845 5845 5845 5843 5842 5842 5841 5841 5839
5839 5840 5840 5842 5843 5844 5845 5845 5845 5846 5846 5847 5847 5847 5847 5847 5847 5847 5847 5847 5847 5847 5847 5846 5846 5847 5847 5846 5846 5846 5845 5845 5844 5843 5841 5840 5839 5838 5837 5836 5836 5835 5835
5834 5835 5836 5837 5838 5840 5840 5841 5841 5842 5842 5843 5843 5843 5843 5843 5843 5843 5843 5843 5843 5843 5842 5842 5842 5842 5842 5842 5842 5842 5841 5841 5840 5838 5837 5836 5835 5833 5831 5831 5830 5830 5830
5828 5829 5830 5832 5833 5834 5835 5836 5836 5837 5837 5838 5839 5839 5838 5838 5838 5838 5838 5838 5838 5837 5837 5837 5838 5838 5838 5837 5838 5838 5837 5836 5835 5833 5831 5830 5829 5827 5825 5824 5823 5824 5823
5822 5823 5824 5825 5827 5828 5829 5830 5831 5832 5832 5833 5833 5833 5833 5833 5833 5833 5833 5833 5832 5832 5832 5832 5832 5833 5833 5832 5832 5832 5831 5831 5829 5828 5826 5824 5823 5821 5820 5818 5818 5817 5815
5812 5816 5819 5820 5820 5821 5823 5823 5825 5825 5826 5827 5827 5828 5828 5828 5828 5828 5828 5828 5828 5828 5827 5827 5827 5827 5827 5827 5826 5825 5825 5825 5823 5822 5820 5819 5817 5816 5815 5814 5813 5812 5811
5806 5807 5812 5815 5816 5816 5817 5817 5818 5819 5820 5821 5821 5822 5823 5822 5823 5823 5823 5823 5823 5823 5822 5821 5821 5821 5821 5821 5820 5819 5818 5818 5817 5816 5815 5813 5811 5810 5809 5808 5808 5806 5805
5802 5803 5803 5808 5809 5811 5811 5811 5813 5813 5815 5814 5815 5816 5817 5817 5817 5818 5818 5818 5818 5818 5817 5816 5814 5814 5813 5813 5813 5812 5812 5812 5811 5810 5809 5807 5805 5804 5803 5802 5801 5800 5798
5796 5799 5800 5799 5801 5804 5806 5806 5806 5808 5808 5809 5810 5809 5810 5810 5811 5811 5811 5811 5812 5812 5811 5810 5809 5807 5807 5807 5806 5805 5804 5805 5804 5803 5802 5801 5799 5797 5795 5795 5794 5792 5791
5788 5790 5796 5796 5793 5797 5798 5799 5799 5800 5801 5802 5804 5804 5804 5804 5805 5805 5804 5804 5804 5805 5804 5803 5802 5801 5800 5800 5800 5799 5798 5798 5797 5796 5795 5794 5792 5790 5789 5787 5786 5784 5782
5784 5782 5784 5790 5789 5789 5791 5792 5790 5792 5793 5794 5797 5797 5798 5798 5798 5798 5797 5798 5798 5797 5797 5797 5795 5794 5793 5793 5793 5792 5791 5791 5790 5790 5788 5786 5784 5783 5781 5779 5777 5775 5773
5777 5777 5776 5778 5782 5783 5783 5784 5784 5787 5788 5787 5790 5791 5792 5792 5792 5790 5791 5792 5791 5790 5790 5789 5789 5788 5787 5786 5785 5785 5784 5783 5781 5781 5780 5778 5777 5775 5772 5770 5767 5765 5763
5766 5769 5769 5768 5771 5776 5777 5778 5776 5774 5779 5780 5783 5782 5785 5786 5785 5785 5784 5785 5784 5784 5782 5781 5781 5780 5780 5778 5778 5777 5776 5775 5773 5772 5770 5768 5767 5765 5763 5761 5758 5754 5753
5759 5759 5762 5763 5763 5765 5768 5771 5772 5769 5767 5771 5775 5775 5778 5780 5777 5776 5777 5778 5777 5776 5775 5774 5773 5772 5771 5770 5769 5768 5767 5765 5764 5763 5761 5759 5757 5754 5750 5749 5747 5745 5741
5751 5752 5752 5753 5754 5755 5759 5761 5763 5764 5760 5762 5766 5767 5770 5772 5770 5768 5770 5771 5770 5769 5768 5767 5766 5763 5763 5760 5759 5758 5757 5756 5754 5752 5750 5748 5746 5743 5740 5737 5734 5731 5729
5740 5741 5742 5743 5745 5746 5747 5751 5752 5754 5754 5755 5759 5759 5760 5762 5762 5761 5762 5762 5762 5761 5760 5759 5758 5756 5754 5753 5751 5750 5748 5747 5745 5742 5740 5737 5734 5732 5728 5725 5722 5718 5715
5728 5728 5729 5730 5732 5735 5737 5740 5743 5744 5745 5746 5750 5749 5751 5753 5754 5753 5754 5753 5753 5753 5752 5751 5750 5748 5746 5744 5742 5740 5738 5736 5734 5732 5729 5726 5723 5720 5716 5712 5708 5705 5701
5715 5715 5716 5715 5717 5720 5723 5728 5731 5732 5734 5736 5740 5740 5743 5744 5745 5746 5745 5744 5745 5744 5743 5742 5741 5739 5738 5735 5733 5730 5728 5725 5723 5721 5718 5714 5711 5707 5703 5699 5695 5691 5687
5699 5700 5700 5701 5703 5705 5708 5715 5719 5723 5725 5726 5729 5730 5732 5734 5735 5736 5737 5737 5737 5736 5735 5733 5732 5730 5728 5726 5723 5721 5718 5715 5713 5709 5707 5704 5700 5697 5691 5684 5679 5674 5670